CES501 ZJHK-ZSAM

Flight info

Callsign CES501
Flight time 1h 22m
Altitude 33100
Route SAMAS9XD SAMAS G221 BIGRO R200 BEBEM A470 TEBON TEBON8X
Aircraft A320/M-SDE3FGHIRWY/LB1

Departure

Time 2026-05-06 06:28
Airport Haikou Meilan International Airport (ZJHK)

Arrival

Time 2026-05-06 07:51
Airport Xiamen Gaoqi International Airport (ZSAM)
Time Latitude Longitude Altitude Speed Heading
2026-05-06 05:34 19.94853 110.45683 53 ft 0 kts 180°
2026-05-06 06:11 19.94870 110.45682 69 ft 4 kts 176°
2026-05-06 06:11 19.94896 110.45678 43 ft 4 kts 157°
2026-05-06 06:12 19.94913 110.45664 52 ft 3 kts 95°
2026-05-06 06:12 19.94914 110.45660 53 ft 0 kts 90°
2026-05-06 06:17 19.94914 110.45664 52 ft 1 kts 90°
2026-05-06 06:17 19.94921 110.45685 56 ft 6 kts 53°
2026-05-06 06:17 19.94956 110.45724 51 ft 9 kts 60°
2026-05-06 06:17 19.94965 110.45793 53 ft 10 kts 89°
2026-05-06 06:18 19.94966 110.45865 51 ft 9 kts 87°
2026-05-06 06:18 19.94988 110.45908 54 ft 6 kts 44°
2026-05-06 06:18 19.95027 110.45947 51 ft 9 kts 44°
2026-05-06 06:18 19.95080 110.45966 52 ft 10 kts
2026-05-06 06:19 19.95153 110.45966 51 ft 9 kts
2026-05-06 06:19 19.95202 110.46006 55 ft 11 kts 76°
2026-05-06 06:19 19.95205 110.46095 57 ft 13 kts 90°
2026-05-06 06:19 19.95205 110.46200 57 ft 15 kts 90°
2026-05-06 06:20 19.95206 110.46319 57 ft 17 kts 90°
2026-05-06 06:20 19.95206 110.46452 57 ft 19 kts 89°
2026-05-06 06:20 19.95207 110.46597 58 ft 19 kts 90°
2026-05-06 06:20 19.95207 110.46719 59 ft 14 kts 90°
2026-05-06 06:21 19.95168 110.46788 59 ft 9 kts 167°
2026-05-06 06:21 19.95124 110.46747 58 ft 10 kts 262°
2026-05-06 06:21 19.95122 110.46662 59 ft 13 kts 269°
2026-05-06 06:21 19.95123 110.46559 52 ft 15 kts 270°
2026-05-06 06:22 19.95122 110.46438 58 ft 17 kts 269°
2026-05-06 06:22 19.95122 110.46313 58 ft 17 kts 270°
2026-05-06 06:22 19.95122 110.46182 57 ft 19 kts 270°
2026-05-06 06:22 19.95121 110.46038 57 ft 16 kts 269°
2026-05-06 06:23 19.95158 110.45968 52 ft 10 kts 347°
2026-05-06 06:23 19.95203 110.45915 57 ft 12 kts 274°
2026-05-06 06:23 19.95203 110.45822 57 ft 14 kts 270°
2026-05-06 06:23 19.95203 110.45713 56 ft 16 kts 270°
2026-05-06 06:24 19.95203 110.45587 56 ft 18 kts 270°
2026-05-06 06:24 19.95203 110.45454 55 ft 18 kts 270°
2026-05-06 06:24 19.95202 110.45310 54 ft 21 kts 270°
2026-05-06 06:24 19.95202 110.45146 53 ft 23 kts 269°
2026-05-06 06:25 19.95202 110.44995 52 ft 21 kts 269°
2026-05-06 06:25 19.95200 110.44893 52 ft 9 kts 268°
2026-05-06 06:26 19.95205 110.44841 52 ft 10 kts 293°
2026-05-06 06:26 19.95277 110.44820 51 ft 12 kts 359°
2026-05-06 06:26 19.95360 110.44851 47 ft 13 kts 49°
2026-05-06 06:26 19.95372 110.44917 50 ft 0 kts 92°
2026-05-06 06:27 19.95372 110.44921 50 ft 6 kts 92°
2026-05-06 06:28 19.95374 110.45212 53 ft 74 kts 90°
2026-05-06 06:28 19.95376 110.45972 58 ft 129 kts 90°
2026-05-06 06:28 19.95382 110.47090 86 ft 169 kts 89°
2026-05-06 06:28 19.95434 110.48319 697 ft 165 kts 84°
2026-05-06 06:29 19.95716 110.49502 1339 ft 168 kts 59°
2026-05-06 06:29 19.96606 110.50330 1913 ft 173 kts 34°
2026-05-06 06:29 19.97640 110.50993 2465 ft 175 kts 33°
2026-05-06 06:29 19.98676 110.51680 2906 ft 179 kts 34°
2026-05-06 06:30 19.99816 110.52457 2983 ft 210 kts 35°
2026-05-06 06:30 20.01144 110.53374 2967 ft 241 kts 33°
2026-05-06 06:30 20.02583 110.54369 2981 ft 249 kts 34°
2026-05-06 06:30 20.04038 110.55377 3040 ft 252 kts 34°
2026-05-06 06:31 20.05520 110.56407 3815 ft 255 kts 34°
2026-05-06 06:31 20.07019 110.57446 4600 ft 260 kts 34°
2026-05-06 06:31 20.08564 110.58474 5388 ft 264 kts 27°
2026-05-06 06:31 20.10304 110.59111 6182 ft 267 kts
2026-05-06 06:32 20.12204 110.59197 6666 ft 283 kts 350°
2026-05-06 06:32 20.14148 110.58732 7285 ft 289 kts 344°
2026-05-06 06:32 20.16110 110.58217 8057 ft 292 kts 344°
2026-05-06 06:32 20.18087 110.57709 8851 ft 293 kts 344°
2026-05-06 06:33 20.20078 110.57203 9645 ft 295 kts 344°
2026-05-06 06:33 20.22092 110.56692 10293 ft 303 kts 344°
2026-05-06 06:33 20.24223 110.56149 10452 ft 326 kts 344°
2026-05-06 06:33 20.26475 110.55576 10583 ft 347 kts 344°
2026-05-06 06:34 20.28865 110.54972 10980 ft 357 kts 344°
2026-05-06 06:34 20.31298 110.54359 11540 ft 361 kts 344°
2026-05-06 06:34 20.33756 110.53742 12118 ft 365 kts 344°
2026-05-06 06:34 20.36246 110.53114 12699 ft 369 kts 344°
2026-05-06 06:35 20.38755 110.52481 13272 ft 372 kts 344°
2026-05-06 06:35 20.41289 110.51839 13819 ft 376 kts 344°
2026-05-06 06:35 20.43846 110.51188 14310 ft 380 kts 345°
2026-05-06 06:35 20.46484 110.50810 14814 ft 387 kts 358°
2026-05-06 06:36 20.49174 110.51138 15298 ft 393 kts 12°
2026-05-06 06:36 20.51742 110.52192 15791 ft 400 kts 27°
2026-05-06 06:36 20.54007 110.53938 16269 ft 405 kts 43°
2026-05-06 06:36 20.55898 110.56176 16757 ft 409 kts 49°
2026-05-06 06:37 20.57753 110.58491 17250 ft 412 kts 49°
2026-05-06 06:37 20.59620 110.60824 17751 ft 415 kts 49°
2026-05-06 06:37 20.61504 110.63179 18241 ft 419 kts 49°
2026-05-06 06:37 20.63407 110.65555 18670 ft 422 kts 49°
2026-05-06 06:38 20.65323 110.67946 19108 ft 425 kts 49°
2026-05-06 06:38 20.67253 110.70354 19556 ft 428 kts 49°
2026-05-06 06:38 20.69197 110.72778 20006 ft 431 kts 49°
2026-05-06 06:38 20.71134 110.75190 20455 ft 434 kts 49°
2026-05-06 06:39 20.73107 110.77647 20883 ft 437 kts 49°
2026-05-06 06:39 20.75094 110.80122 21309 ft 440 kts 49°
2026-05-06 06:39 20.77094 110.82615 21725 ft 443 kts 49°
2026-05-06 06:39 20.79104 110.85126 22124 ft 446 kts 49°
2026-05-06 06:40 20.81125 110.87656 22511 ft 449 kts 49°
2026-05-06 06:40 20.83156 110.90199 22889 ft 452 kts 49°
2026-05-06 06:40 20.85203 110.92766 23250 ft 454 kts 49°
2026-05-06 06:40 20.87263 110.95353 23586 ft 457 kts 49°
2026-05-06 06:41 20.89330 110.97943 23893 ft 459 kts 49°
2026-05-06 06:41 20.91411 111.00548 24204 ft 461 kts 49°
2026-05-06 06:41 20.93500 111.03159 24516 ft 463 kts 49°
2026-05-06 06:41 20.95568 111.05749 24827 ft 464 kts 49°
2026-05-06 06:42 20.97671 111.08378 25133 ft 466 kts 48°
2026-05-06 06:42 20.99786 111.11012 25440 ft 467 kts 48°
2026-05-06 06:42 21.01912 111.13652 25742 ft 469 kts 48°
2026-05-06 06:42 21.04047 111.16298 26055 ft 470 kts 48°
2026-05-06 06:43 21.06183 111.18952 26347 ft 472 kts 48°
2026-05-06 06:43 21.08323 111.21622 26632 ft 473 kts 48°
2026-05-06 06:43 21.10474 111.24310 26894 ft 476 kts 48°
2026-05-06 06:43 21.12631 111.27004 27170 ft 477 kts 48°
2026-05-06 06:44 21.14805 111.29717 27455 ft 479 kts 47°
2026-05-06 06:44 21.16981 111.32427 27747 ft 481 kts 47°
2026-05-06 06:44 21.19162 111.35145 28028 ft 482 kts 47°
2026-05-06 06:44 21.21354 111.37879 28311 ft 484 kts 47°
2026-05-06 06:45 21.23546 111.40620 28598 ft 486 kts 47°
2026-05-06 06:45 21.25747 111.43378 28915 ft 486 kts 47°
2026-05-06 06:45 21.27913 111.46097 29318 ft 485 kts 47°
2026-05-06 06:45 21.30097 111.48843 29768 ft 483 kts 47°
2026-05-06 06:46 21.32276 111.51583 30178 ft 482 kts 47°
2026-05-06 06:46 21.34449 111.54313 30541 ft 481 kts 47°
2026-05-06 06:46 21.36618 111.57032 30906 ft 480 kts 47°
2026-05-06 06:46 21.38787 111.59750 31287 ft 478 kts 47°
2026-05-06 06:47 21.40949 111.62461 31661 ft 477 kts 47°
2026-05-06 06:47 21.43101 111.65161 32055 ft 475 kts 47°
2026-05-06 06:47 21.45246 111.67858 32452 ft 474 kts 47°
2026-05-06 06:47 21.47381 111.70544 32843 ft 472 kts 47°
2026-05-06 06:48 21.49517 111.73230 32994 ft 472 kts 47°
2026-05-06 06:48 21.53815 111.78637 33029 ft 477 kts 47°
2026-05-06 06:49 21.57653 111.84419 33030 ft 482 kts 61°
2026-05-06 06:49 21.60347 111.91036 33031 ft 484 kts 65°
2026-05-06 06:50 21.63017 111.97677 33027 ft 484 kts 64°
2026-05-06 06:50 21.65689 112.04325 33029 ft 484 kts 65°
2026-05-06 06:51 21.68349 112.10978 33037 ft 484 kts 65°
2026-05-06 06:51 21.71007 112.17633 33039 ft 485 kts 65°
2026-05-06 06:52 21.73671 112.24311 33039 ft 485 kts 65°
2026-05-06 06:52 21.76332 112.30992 33042 ft 486 kts 65°
2026-05-06 06:53 21.78990 112.37669 33042 ft 485 kts 65°
2026-05-06 06:53 21.81197 112.43227 33042 ft 485 kts 65°
2026-05-06 06:54 21.83846 112.49910 33054 ft 486 kts 65°
2026-05-06 06:54 21.86496 112.56598 33049 ft 485 kts 65°
2026-05-06 06:55 21.89181 112.63268 33044 ft 485 kts 64°
2026-05-06 06:55 21.91890 112.69925 33043 ft 486 kts 64°
2026-05-06 06:56 21.94597 112.76595 33050 ft 486 kts 64°
2026-05-06 06:56 21.97280 112.83284 33047 ft 486 kts 65°
2026-05-06 06:57 21.99918 112.89995 33048 ft 486 kts 65°
2026-05-06 06:57 22.02503 112.96695 33044 ft 486 kts 65°
2026-05-06 06:58 22.05131 113.03412 33054 ft 486 kts 64°
2026-05-06 06:58 22.07907 113.10061 33049 ft 486 kts 63°
2026-05-06 06:59 22.10730 113.16687 33043 ft 486 kts 63°
2026-05-06 06:59 22.13519 113.23333 33042 ft 486 kts 64°
2026-05-06 07:00 22.16159 113.30062 33046 ft 487 kts 66°
2026-05-06 07:00 22.18615 113.36882 33051 ft 488 kts 67°
2026-05-06 07:01 22.21101 113.43698 33057 ft 487 kts 63°
2026-05-06 07:01 22.24778 113.49693 33055 ft 481 kts 44°
2026-05-06 07:02 22.29358 113.54952 33055 ft 481 kts 44°
2026-05-06 07:02 22.33913 113.60239 33053 ft 481 kts 44°
2026-05-06 07:03 22.38453 113.65543 33056 ft 481 kts 44°
2026-05-06 07:03 22.43003 113.70838 33070 ft 481 kts 44°
2026-05-06 07:04 22.47569 113.76129 33078 ft 481 kts 44°
2026-05-06 07:04 22.52123 113.81431 33080 ft 481 kts 44°
2026-05-06 07:05 22.56676 113.86742 33086 ft 481 kts 44°
2026-05-06 07:05 22.61231 113.92055 33085 ft 481 kts 44°
2026-05-06 07:06 22.65782 113.97368 33084 ft 481 kts 44°
2026-05-06 07:06 22.69720 114.03245 33080 ft 487 kts 62°
2026-05-06 07:07 22.71701 114.10252 33080 ft 490 kts 82°
2026-05-06 07:07 22.72457 114.17544 33078 ft 491 kts 83°
2026-05-06 07:08 22.73230 114.24899 33075 ft 491 kts 83°
2026-05-06 07:08 22.73994 114.32252 33082 ft 491 kts 83°
2026-05-06 07:09 22.74755 114.39614 33087 ft 492 kts 83°
2026-05-06 07:09 22.75515 114.46982 33081 ft 492 kts 83°
2026-05-06 07:10 22.76268 114.54370 33083 ft 493 kts 83°
2026-05-06 07:10 22.77019 114.61757 33083 ft 493 kts 83°
2026-05-06 07:11 22.77771 114.69139 33085 ft 493 kts 83°
2026-05-06 07:11 22.78509 114.76485 33087 ft 493 kts 83°
2026-05-06 07:12 22.79285 114.83874 33092 ft 493 kts 82°
2026-05-06 07:12 22.80091 114.91261 33094 ft 494 kts 83°
2026-05-06 07:13 22.80885 114.98652 33092 ft 494 kts 83°
2026-05-06 07:13 22.81655 115.06050 33085 ft 494 kts 83°
2026-05-06 07:14 22.82428 115.13454 33085 ft 494 kts 83°
2026-05-06 07:14 22.83203 115.20855 33087 ft 494 kts 83°
2026-05-06 07:15 22.83973 115.28263 33084 ft 494 kts 83°
2026-05-06 07:15 22.84733 115.35670 33085 ft 494 kts 83°
2026-05-06 07:16 22.85490 115.43079 33092 ft 495 kts 83°
2026-05-06 07:16 22.86251 115.50494 33087 ft 495 kts 83°
2026-05-06 07:17 22.87015 115.57929 33081 ft 496 kts 83°
2026-05-06 07:17 22.87769 115.65363 33077 ft 496 kts 83°
2026-05-06 07:18 22.88513 115.72768 33076 ft 497 kts 83°
2026-05-06 07:18 22.89264 115.80211 33076 ft 497 kts 83°
2026-05-06 07:19 22.90006 115.87658 33078 ft 497 kts 83°
2026-05-06 07:19 22.90765 115.95117 33078 ft 497 kts 83°
2026-05-06 07:20 22.91556 116.02563 33081 ft 497 kts 82°
2026-05-06 07:20 22.92343 116.10010 33082 ft 497 kts 83°
2026-05-06 07:21 22.93107 116.17454 33081 ft 497 kts 83°
2026-05-06 07:21 22.93864 116.24907 33082 ft 497 kts 83°
2026-05-06 07:22 22.95305 116.32186 33084 ft 493 kts 66°
2026-05-06 07:22 22.98768 116.38494 33078 ft 485 kts 46°
2026-05-06 07:23 23.03768 116.43298 33075 ft 479 kts 33°
2026-05-06 07:23 23.09068 116.47675 33071 ft 479 kts 34°
2026-05-06 07:24 23.14338 116.52033 33071 ft 479 kts 34°
2026-05-06 07:24 23.19677 116.56460 33077 ft 479 kts 34°
2026-05-06 07:25 23.24951 116.60832 33096 ft 479 kts 33°
2026-05-06 07:25 23.30256 116.65227 33093 ft 478 kts 33°
2026-05-06 07:26 23.35538 116.69623 33086 ft 478 kts 33°
2026-05-06 07:26 23.40824 116.74027 33084 ft 478 kts 33°
2026-05-06 07:27 23.45868 116.78770 33083 ft 482 kts 43°
2026-05-06 07:27 23.50518 116.84037 33086 ft 482 kts 42°
2026-05-06 07:27 23.52842 116.86673 32869 ft 482 kts 43°
2026-05-06 07:28 23.55158 116.89305 32622 ft 481 kts 43°
2026-05-06 07:28 23.57447 116.91907 32375 ft 481 kts 43°
2026-05-06 07:28 23.62087 116.97183 31890 ft 483 kts 43°
2026-05-06 07:29 23.64411 116.99829 31652 ft 483 kts 43°
2026-05-06 07:29 23.66739 117.02477 31406 ft 484 kts 43°
2026-05-06 07:29 23.69070 117.05130 31171 ft 485 kts 43°
2026-05-06 07:29 23.71406 117.07792 30951 ft 485 kts 43°
2026-05-06 07:30 23.73738 117.10456 30720 ft 486 kts 43°
2026-05-06 07:30 23.76081 117.13129 30484 ft 487 kts 43°
2026-05-06 07:30 23.78480 117.15741 30255 ft 487 kts 41°
2026-05-06 07:30 23.80964 117.18249 30028 ft 487 kts 39°
2026-05-06 07:31 23.83507 117.20685 29760 ft 486 kts 38°
2026-05-06 07:31 23.86077 117.23092 29492 ft 486 kts 38°
2026-05-06 07:31 23.88641 117.25494 29222 ft 486 kts 38°
2026-05-06 07:31 23.91184 117.27907 28700 ft 482 kts 39°
2026-05-06 07:32 23.93683 117.30325 28028 ft 478 kts 39°
2026-05-06 07:32 23.96149 117.32742 27377 ft 474 kts 40°
2026-05-06 07:32 23.98591 117.35149 26703 ft 470 kts 40°
2026-05-06 07:32 24.01007 117.37536 26053 ft 467 kts 40°
2026-05-06 07:33 24.03410 117.39910 25402 ft 464 kts 40°
2026-05-06 07:33 24.05804 117.42266 24759 ft 461 kts 41°
2026-05-06 07:33 24.08188 117.44606 24121 ft 459 kts 41°
2026-05-06 07:33 24.10531 117.46903 23469 ft 457 kts 41°
2026-05-06 07:34 24.12891 117.49216 22850 ft 451 kts 41°
2026-05-06 07:34 24.15120 117.51676 22194 ft 447 kts 47°
2026-05-06 07:34 24.17187 117.54150 21566 ft 432 kts 47°
2026-05-06 07:34 24.19177 117.56534 20963 ft 418 kts 47°
2026-05-06 07:35 24.21104 117.58847 20372 ft 405 kts 47°
2026-05-06 07:35 24.22950 117.61064 19803 ft 393 kts 46°
2026-05-06 07:35 24.24767 117.63249 19229 ft 385 kts 46°
2026-05-06 07:35 24.26559 117.65405 18662 ft 381 kts 46°
2026-05-06 07:36 24.28336 117.67539 17939 ft 376 kts 46°
2026-05-06 07:36 24.30088 117.69642 17133 ft 371 kts 46°
2026-05-06 07:36 24.31820 117.71722 16355 ft 367 kts 46°
2026-05-06 07:36 24.33529 117.73773 15592 ft 363 kts 46°
2026-05-06 07:37 24.35221 117.75806 14846 ft 359 kts 46°
2026-05-06 07:37 24.36890 117.77819 14117 ft 355 kts 46°
2026-05-06 07:37 24.38549 117.79819 13348 ft 353 kts 46°
2026-05-06 07:37 24.40195 117.81804 12538 ft 350 kts 46°
2026-05-06 07:38 24.41823 117.83765 11774 ft 346 kts 46°
2026-05-06 07:38 24.43438 117.85712 11009 ft 343 kts 47°
2026-05-06 07:38 24.45038 117.87641 10261 ft 340 kts 47°
2026-05-06 07:38 24.46088 117.88907 9775 ft 338 kts 47°
2026-05-06 07:39 24.47665 117.90812 8949 ft 335 kts 46°
2026-05-06 07:39 24.49744 117.93326 7894 ft 330 kts 46°
2026-05-06 07:39 24.50763 117.94560 7399 ft 328 kts 46°
2026-05-06 07:39 24.52259 117.96372 7071 ft 310 kts 46°
2026-05-06 07:40 24.53653 117.98066 6925 ft 288 kts 46°
2026-05-06 07:40 24.54955 117.99644 6785 ft 270 kts 45°
2026-05-06 07:40 24.56177 118.01123 6635 ft 252 kts 45°
2026-05-06 07:40 24.57330 118.02493 6502 ft 238 kts 44°
2026-05-06 07:41 24.58479 118.03799 6362 ft 237 kts 43°
2026-05-06 07:41 24.59630 118.05089 6210 ft 235 kts 43°
2026-05-06 07:41 24.60769 118.06367 6067 ft 233 kts 43°
2026-05-06 07:41 24.61906 118.07645 5915 ft 235 kts 43°
2026-05-06 07:42 24.63049 118.08932 5767 ft 235 kts 43°
2026-05-06 07:42 24.64190 118.10215 5620 ft 233 kts 44°
2026-05-06 07:42 24.65313 118.11481 5471 ft 230 kts 45°
2026-05-06 07:42 24.66413 118.12726 5326 ft 229 kts 44°
2026-05-06 07:43 24.67526 118.13988 5181 ft 229 kts 45°
2026-05-06 07:43 24.68633 118.15246 5085 ft 229 kts 45°
2026-05-06 07:43 24.69734 118.16500 5033 ft 227 kts 45°
2026-05-06 07:43 24.70834 118.17752 5030 ft 228 kts 45°
2026-05-06 07:44 24.71939 118.19008 5029 ft 228 kts 45°
2026-05-06 07:44 24.73046 118.20265 5029 ft 229 kts 45°
2026-05-06 07:44 24.73928 118.21697 5026 ft 227 kts 71°
2026-05-06 07:44 24.74099 118.23406 4843 ft 226 kts 101°
2026-05-06 07:45 24.73509 118.24974 4540 ft 222 kts 130°
2026-05-06 07:45 24.72376 118.26099 4271 ft 218 kts 144°
2026-05-06 07:45 24.71185 118.27096 3994 ft 211 kts 143°
2026-05-06 07:45 24.70030 118.28053 3698 ft 205 kts 149°
2026-05-06 07:46 24.68741 118.28647 3504 ft 199 kts 168°
2026-05-06 07:46 24.67376 118.28731 3411 ft 195 kts 186°
2026-05-06 07:46 24.66124 118.28357 3229 ft 179 kts 204°
2026-05-06 07:46 24.65127 118.27654 3047 ft 167 kts 221°
2026-05-06 07:47 24.64385 118.26739 2858 ft 155 kts 231°
2026-05-06 07:47 24.63737 118.25831 2696 ft 148 kts 231°
2026-05-06 07:47 24.63109 118.24951 2500 ft 145 kts 231°
2026-05-06 07:47 24.62485 118.24077 2323 ft 145 kts 231°
2026-05-06 07:48 24.61864 118.23205 2136 ft 145 kts 232°
2026-05-06 07:48 24.61241 118.22332 1921 ft 145 kts 230°
2026-05-06 07:48 24.60616 118.21456 1730 ft 145 kts 229°
2026-05-06 07:48 24.59990 118.20578 1542 ft 146 kts 230°
2026-05-06 07:49 24.59365 118.19702 1356 ft 145 kts 230°
2026-05-06 07:49 24.58744 118.18832 1160 ft 146 kts 229°
2026-05-06 07:49 24.58126 118.17965 987 ft 143 kts 230°
2026-05-06 07:49 24.57515 118.17110 778 ft 142 kts 231°
2026-05-06 07:50 24.56899 118.16251 624 ft 142 kts 231°
2026-05-06 07:50 24.56290 118.15398 408 ft 141 kts 231°
2026-05-06 07:50 24.55688 118.14555 225 ft 140 kts 231°
2026-05-06 07:50 24.55087 118.13716 51 ft 138 kts 230°
2026-05-06 07:51 24.54569 118.12993 49 ft 102 kts 232°
2026-05-06 07:51 24.54214 118.12493 55 ft 64 kts 232°
2026-05-06 07:51 24.54057 118.12273 54 ft 25 kts 227°
2026-05-06 07:51 24.53936 118.12185 52 ft 15 kts 205°
2026-05-06 07:52 24.53894 118.12165 55 ft 0 kts 202°
2026-05-06 07:54 24.53892 118.12164 59 ft 1 kts 202°
2026-05-06 07:55 24.53879 118.12159 59 ft 3 kts 202°
2026-05-06 07:55 24.53853 118.12147 60 ft 5 kts 202°
2026-05-06 07:55 24.53824 118.12133 59 ft 0 kts 202°
2026-05-06 07:56 24.53819 118.12131 57 ft 2 kts 202°
2026-05-06 07:57 24.53801 118.12123 55 ft 5 kts 202°
2026-05-06 07:57 24.53788 118.12117 61 ft 0 kts 202°
2026-05-06 07:57 24.53783 118.12115 55 ft 2 kts 202°
2026-05-06 07:57 24.53757 118.12102 58 ft 5 kts 204°
2026-05-06 07:58 24.53719 118.12080 56 ft 7 kts 215°
2026-05-06 07:58 24.53680 118.12032 57 ft 9 kts 231°
2026-05-06 07:58 24.53636 118.12003 55 ft 7 kts 180°
2026-05-06 07:58 24.53601 118.12022 59 ft 6 kts 144°
2026-05-06 07:59 24.53563 118.12055 62 ft 8 kts 141°
2026-05-06 07:59 24.53554 118.12111 54 ft 9 kts 59°
2026-05-06 07:59 24.53601 118.12178 61 ft 13 kts 51°
2026-05-06 07:59 24.53657 118.12252 52 ft 13 kts 48°
2026-05-06 08:00 24.53717 118.12334 55 ft 14 kts 52°
2026-05-06 08:00 24.53768 118.12407 58 ft 10 kts 52°
2026-05-06 08:00 24.53810 118.12465 56 ft 7 kts 52°
2026-05-06 08:00 24.53831 118.12521 58 ft 9 kts 102°
2026-05-06 08:01 24.53815 118.12547 54 ft 3 kts 136°
2026-05-06 08:01 24.53797 118.12563 52 ft 3 kts 142°
2026-05-06 08:01 24.53785 118.12572 58 ft 0 kts 143°
2026-05-06 08:01 24.53783 118.12574 58 ft 0 kts 143°